CSS (TIANHE)

Last updated on Sun Apr 12 2026 00:02:13 GMT+0000 (Coordinated Universal Time)

1 48274U 21035A 26101.46204559 .00021127 00000+0 23577-3 0 9990 2 48274 41.4684 8.5089 0004896 185.3239 174.7549 15.62269291282734
UTC large
Height (km)
Speed (km/s)
/
Latitude / Longitude
Inclination (degrees)
Orbital Period (minutes)
Azimuth
Elevation
Range (km)
Doppler Factor

Next 0 passes for location: London (51.5072 / 0.1276)

Sorry there are no passes over London.
CSS (TIANHE)